Regional Weather Roundup
Issued by NWS Little Rock, AR

Home | Current Version | Previous Version | Text Only | Print | Product List | Glossary Off
Versions: 1 2 3 4 5 6 7 8 9 10 11 12 13 14 15 16 17 18 19 20 21 22 23 24 25 26 27 28 29 30 31 32 33 34 35 36 37 38 39 40 41 42 43 44 45 46 47 48 49 50

000
ASUS44 KLZK 241705
RWRLZK

WEATHER ROUNDUP FOR ARKANSAS
NATIONAL WEATHER SERVICE LITTLE ROCK AR
1200 PM CDT SUN SEP 24 2017

NOTE: "FAIR" INDICATES FEW OR NO CLOUDS BELOW 12,000 FEET WITH NO
SIGNIFICANT WEATHER AND/OR OBSTRUCTIONS TO VISIBILITY.

ARZ001-003-010-029-241800-
NORTHWEST ARKANSAS

CITY           SKY/WX    TMP DP  RH WIND       PRES   REMARKS
FAYETTEVILLE   SUNNY     84  69  60 SE10      30.02F HX  88
FORT SMITH     PTSUNNY   88  68  51 W3        29.97F HX  91
HARRISON       MOSUNNY   85  65  51 S8        30.04F HX  86
BENTONVILLE    MOSUNNY   83  66  56 S10       30.04F HX  85
ROGERS         PTSUNNY   85  68  56 VRB7G16   30.04S HX  88
SILOAM SPGS    SUNNY     85  68  56 S13       30.02F HX  88
HIGHFILL       MOSUNNY   85  68  56 S12       30.03S HX  88
SPRINGDALE     MOSUNNY   84  66  54 S13       30.04S HX  86
$$

ARZ004-005-016-241800-
NORTH CENTRAL ARKANSAS

CITY           SKY/WX    TMP DP  RH WIND       PRES   REMARKS
BATESVILLE     MOSUNNY   87  70  56 E7        30.02F HX  92
FLIPPIN        SUNNY     87  68  52 VRB3      30.02F HX  90
MTN HOME       PTSUNNY   84  67  56 VRB3      30.02F HX  86
$$

ARZ040-041-241800-
WEST CENTRAL ARKANSAS

CITY           SKY/WX    TMP DP  RH WIND       PRES   REMARKS
MENA           MOSUNNY   88  68  51 CALM      30.01F HX  91
MOUNT IDA      MOSUNNY   88  62  41 VRB6      29.98F HX  88
$$

ARZ009-017-025-026-028-241800-
NORTHEAST ARKANSAS

CITY           SKY/WX    TMP DP  RH WIND       PRES   REMARKS
JONESBORO      SUNNY     88  70  55 VRB7      30.02F HX  93
NEWPORT        SUNNY     89  69  51 SE7       30.01F HX  93
BLYTHEVILLE    SUNNY     88  71  57 VRB3      30.03F HX  94
$$

ARZ022-023-033-042-044-241800-
CENTRAL ARKANSAS

CITY           SKY/WX    TMP DP  RH WIND       PRES   REMARKS
LITTLE ROCK    MOSUNNY   86  71  60 E6        30.00S HX  91
JACKSONVILLE   SUNNY     89  69  51 E6        29.99F HX  94
CONWAY           N/A     90  68  48 CALM      29.98S HX  93
SEARCY         SUNNY     89  72  56 SE9       30.02F HX  96
HOT SPRINGS    SUNNY     88  67  49 VRB7      29.99F HX  91
RUSSELLVILLE   SUNNY     87  68  52 E6        29.99F HX  90
CLINTON        FAIR      86  70  58 CALM      30.01F HAZE    HX  90
$$

ARZ036-241800-
EAST ARKANSAS

CITY           SKY/WX    TMP DP  RH WIND       PRES   REMARKS
WEST MEMPHIS   SUNNY     88  69  53 SE5       30.00F HX  92
$$

ARZ050-053-066-070-073-241800-
SOUTHWEST ARKANSAS

CITY           SKY/WX    TMP DP  RH WIND       PRES   REMARKS
ARKADELPHIA    FAIR      89  70  53 SE5       29.98F HX  94
CAMDEN         SUNNY     91  68  46 CALM      29.97F HX  95
TEXARKANA      SUNNY     86  68  54 VRB3      29.97F HX  89
EL DORADO      SUNNY     86  69  56 CALM      29.98F HX  90
DE QUEEN       PTSUNNY   86  71  60 S7        29.96F HX  91
$$

ARZ056-057-069-241800-
SOUTHEAST ARKANSAS

CITY           SKY/WX    TMP DP  RH WIND       PRES   REMARKS
PINE BLUFF     SUNNY     87  67  51 S7        30.00S HX  90
STUTTGART      SUNNY     89  66  46 S9        30.00F HX  91
MONTICELLO     SUNNY     87  68  52 SE5       29.99F HX  90

$$





USA.gov is the U.S. government's official web portal to all federal, state and local government web resources and services.